HAZ2118 ZSAM-ZSHC

Flight info

Callsign HAZ2118
Flight time 1h 2m
Altitude 29100
Route DOVPU7Y DOVPU W643 FOC W644 AKAVO A470 UGAGO UGAGO13
Aircraft A320/M-SDE3FGHIRWY/LB1

Departure

Time 2026-04-28 09:13
Airport Xiamen Gaoqi International Airport (ZSAM)

Arrival

Time 2026-04-28 10:15
Airport Hangzhou Xiaoshan International Airport (ZSHC)
Time Latitude Longitude Altitude Speed Heading
2026-04-28 08:56 24.54713 118.14002 45 ft 0 kts 52°
2026-04-28 09:06 24.54703 118.13988 47 ft 3 kts 46°
2026-04-28 09:06 24.54687 118.13972 45 ft 3 kts 34°
2026-04-28 09:06 24.54668 118.13961 43 ft 3 kts 17°
2026-04-28 09:07 24.54648 118.13958 44 ft 3 kts 346°
2026-04-28 09:07 24.54634 118.13964 45 ft 0 kts 318°
2026-04-28 09:07 24.54645 118.13950 46 ft 3 kts 304°
2026-04-28 09:07 24.54655 118.13931 46 ft 1 kts 303°
2026-04-28 09:09 24.54664 118.13920 44 ft 9 kts 311°
2026-04-28 09:10 24.54737 118.13853 47 ft 14 kts 321°
2026-04-28 09:10 24.54822 118.13779 48 ft 17 kts 322°
2026-04-28 09:10 24.54895 118.13746 47 ft 10 kts 19°
2026-04-28 09:10 24.54963 118.13826 45 ft 21 kts 51°
2026-04-28 09:11 24.55075 118.13982 44 ft 28 kts 52°
2026-04-28 09:11 24.55180 118.14129 45 ft 19 kts 53°
2026-04-28 09:11 24.55265 118.14147 44 ft 13 kts 326°
2026-04-28 09:11 24.55331 118.14091 43 ft 9 kts 320°
2026-04-28 09:12 24.55322 118.14040 43 ft 6 kts 231°
2026-04-28 09:12 24.55319 118.14037 45 ft 0 kts 231°
2026-04-28 09:12 24.55274 118.13974 43 ft 38 kts 232°
2026-04-28 09:12 24.54960 118.13534 47 ft 105 kts 232°
2026-04-28 09:13 24.54395 118.12744 50 ft 156 kts 232°
2026-04-28 09:13 24.53690 118.11726 393 ft 174 kts 234°
2026-04-28 09:13 24.52950 118.10589 815 ft 192 kts 231°
2026-04-28 09:13 24.52152 118.09448 1622 ft 189 kts 227°
2026-04-28 09:14 24.51318 118.08314 2252 ft 196 kts 229°
2026-04-28 09:14 24.50447 118.07135 2784 ft 201 kts 229°
2026-04-28 09:14 24.49565 118.05930 3370 ft 204 kts 228°
2026-04-28 09:14 24.48674 118.04705 3972 ft 207 kts 229°
2026-04-28 09:15 24.47777 118.03476 4674 ft 205 kts 227°
2026-04-28 09:15 24.46626 118.02570 5267 ft 205 kts 200°
2026-04-28 09:15 24.45212 118.02427 5977 ft 209 kts 171°
2026-04-28 09:15 24.43889 118.03136 6605 ft 220 kts 140°
2026-04-28 09:16 24.43103 118.04603 7235 ft 233 kts 106°
2026-04-28 09:16 24.43125 118.06454 7599 ft 257 kts 84°
2026-04-28 09:16 24.43424 118.08482 7906 ft 281 kts 82°
2026-04-28 09:16 24.43907 118.10636 8371 ft 300 kts 66°
2026-04-28 09:17 24.45086 118.12554 9076 ft 307 kts 51°
2026-04-28 09:17 24.46433 118.14397 9866 ft 312 kts 52°
2026-04-28 09:17 24.47787 118.16279 10614 ft 316 kts 52°
2026-04-28 09:17 24.49168 118.18221 11052 ft 333 kts 52°
2026-04-28 09:18 24.50637 118.20298 11240 ft 356 kts 52°
2026-04-28 09:18 24.52202 118.22518 11387 ft 379 kts 52°
2026-04-28 09:18 24.53859 118.24864 11633 ft 396 kts 52°
2026-04-28 09:18 24.55563 118.27275 12178 ft 402 kts 52°
2026-04-28 09:19 24.57289 118.29714 12807 ft 407 kts 52°
2026-04-28 09:19 24.59036 118.32183 13407 ft 411 kts 52°
2026-04-28 09:19 24.60886 118.34591 13997 ft 415 kts 44°
2026-04-28 09:19 24.63163 118.36540 14530 ft 417 kts 30°
2026-04-28 09:20 24.65710 118.38094 15052 ft 420 kts 27°
2026-04-28 09:20 24.68284 118.39631 15574 ft 422 kts 26°
2026-04-28 09:20 24.70880 118.41176 16078 ft 426 kts 26°
2026-04-28 09:20 24.73489 118.42736 16588 ft 429 kts 26°
2026-04-28 09:21 24.76120 118.44312 17081 ft 432 kts 26°
2026-04-28 09:21 24.77870 118.45364 17418 ft 434 kts 26°
2026-04-28 09:21 24.80527 118.46965 17926 ft 437 kts 26°
2026-04-28 09:21 24.84111 118.49128 18509 ft 441 kts 27°
2026-04-28 09:22 24.85854 118.50282 18788 ft 444 kts 32°
2026-04-28 09:22 24.89024 118.53234 19334 ft 450 kts 45°
2026-04-28 09:22 24.90448 118.54896 19604 ft 451 kts 45°
2026-04-28 09:22 24.92605 118.57421 20013 ft 454 kts 45°
2026-04-28 09:23 24.94771 118.59958 20411 ft 456 kts 45°
2026-04-28 09:23 24.96951 118.62512 20799 ft 459 kts 45°
2026-04-28 09:23 24.99141 118.65082 21191 ft 461 kts 45°
2026-04-28 09:23 25.01336 118.67666 21566 ft 464 kts 45°
2026-04-28 09:24 25.03550 118.70273 21913 ft 467 kts 45°
2026-04-28 09:24 25.05773 118.72888 22276 ft 469 kts 45°
2026-04-28 09:24 25.08013 118.75520 22651 ft 471 kts 45°
2026-04-28 09:24 25.10263 118.78163 22996 ft 474 kts 45°
2026-04-28 09:25 25.12525 118.80819 23331 ft 476 kts 45°
2026-04-28 09:25 25.14797 118.83485 23627 ft 478 kts 45°
2026-04-28 09:25 25.17079 118.86166 23897 ft 480 kts 45°
2026-04-28 09:25 25.19370 118.88865 24165 ft 482 kts 45°
2026-04-28 09:26 25.21663 118.91576 24441 ft 484 kts 45°
2026-04-28 09:26 25.23968 118.94299 24713 ft 486 kts 45°
2026-04-28 09:26 25.26286 118.97033 24977 ft 488 kts 45°
2026-04-28 09:26 25.28614 118.99771 25241 ft 490 kts 45°
2026-04-28 09:27 25.33323 119.05249 25755 ft 493 kts 45°
2026-04-28 09:27 25.35695 119.07996 26007 ft 495 kts 45°
2026-04-28 09:27 25.38079 119.10755 26256 ft 497 kts 45°
2026-04-28 09:28 25.40466 119.13528 26499 ft 499 kts 45°
2026-04-28 09:28 25.42859 119.16314 26735 ft 500 kts 45°
2026-04-28 09:28 25.45259 119.19113 26980 ft 502 kts 45°
2026-04-28 09:28 25.47632 119.21886 27218 ft 504 kts 45°
2026-04-28 09:29 25.50041 119.24706 27534 ft 504 kts 45°
2026-04-28 09:29 25.52474 119.27556 27916 ft 502 kts 45°
2026-04-28 09:29 25.54839 119.30327 28287 ft 501 kts 45°
2026-04-28 09:29 25.57224 119.33132 28645 ft 500 kts 45°
2026-04-28 09:30 25.59602 119.35942 28946 ft 500 kts 45°
2026-04-28 09:30 25.61984 119.38771 29020 ft 503 kts 45°
2026-04-28 09:30 25.66766 119.44445 29022 ft 504 kts 45°
2026-04-28 09:31 25.71563 119.50115 29033 ft 504 kts 45°
2026-04-28 09:31 25.76426 119.55713 29021 ft 502 kts 39°
2026-04-28 09:32 25.82197 119.59942 29024 ft 497 kts 24°
2026-04-28 09:32 25.88353 119.63425 29021 ft 496 kts 24°
2026-04-28 09:33 25.94497 119.66929 29015 ft 496 kts 24°
2026-04-28 09:33 26.00651 119.70404 29019 ft 496 kts 24°
2026-04-28 09:34 26.06956 119.73427 29026 ft 491 kts 12°
2026-04-28 09:34 26.13659 119.74348 29020 ft 483 kts 354°
2026-04-28 09:35 26.20355 119.73933 29036 ft 482 kts 353°
2026-04-28 09:35 26.27052 119.73518 29043 ft 482 kts 353°
2026-04-28 09:36 26.33740 119.73110 29038 ft 481 kts 353°
2026-04-28 09:36 26.40424 119.72694 29039 ft 481 kts 353°
2026-04-28 09:37 26.47106 119.72280 29053 ft 481 kts 354°
2026-04-28 09:37 26.53813 119.72215 29044 ft 482 kts 358°
2026-04-28 09:38 26.60525 119.72488 29041 ft 483 kts 359°
2026-04-28 09:38 26.67187 119.72748 29042 ft 482 kts 358°
2026-04-28 09:39 26.73889 119.72903 29059 ft 481 kts 357°
2026-04-28 09:39 26.80587 119.73007 29046 ft 482 kts 357°
2026-04-28 09:40 26.87292 119.73133 29039 ft 482 kts 357°
2026-04-28 09:40 26.93991 119.73279 29043 ft 481 kts 357°
2026-04-28 09:41 27.00529 119.72249 29052 ft 471 kts 338°
2026-04-28 09:41 27.06345 119.69074 29041 ft 464 kts 325°
2026-04-28 09:42 27.11854 119.65302 29036 ft 464 kts 325°
2026-04-28 09:42 27.17371 119.61530 29034 ft 464 kts 325°
2026-04-28 09:43 27.22928 119.57821 29035 ft 467 kts 330°
2026-04-28 09:43 27.29191 119.55736 29036 ft 477 kts 350°
2026-04-28 09:44 27.35875 119.55599 29049 ft 482 kts 356°
2026-04-28 09:44 27.42574 119.55619 29044 ft 482 kts 356°
2026-04-28 09:45 27.49278 119.55634 29040 ft 482 kts 356°
2026-04-28 09:45 27.55940 119.55668 29043 ft 482 kts 356°
2026-04-28 09:46 27.62651 119.55713 29049 ft 482 kts 356°
2026-04-28 09:46 27.69363 119.55754 29049 ft 482 kts 356°
2026-04-28 09:47 27.76070 119.55785 29044 ft 482 kts 356°
2026-04-28 09:47 27.82779 119.55825 29033 ft 482 kts 356°
2026-04-28 09:48 27.89494 119.55866 29042 ft 482 kts 356°
2026-04-28 09:48 27.96197 119.55909 29035 ft 482 kts 356°
2026-04-28 09:49 28.02907 119.55955 29030 ft 482 kts 356°
2026-04-28 09:49 28.09609 119.55998 29041 ft 482 kts 356°
2026-04-28 09:50 28.16315 119.56238 29039 ft 483 kts 359°
2026-04-28 09:50 28.23028 119.56716 29036 ft 483 kts 359°
2026-04-28 09:51 28.29738 119.57194 29034 ft 483 kts 359°
2026-04-28 09:51 28.36440 119.57602 29049 ft 482 kts 358°
2026-04-28 09:52 28.43135 119.57977 29055 ft 482 kts 358°
2026-04-28 09:52 28.49781 119.58367 29058 ft 481 kts 358°
2026-04-28 09:53 28.56467 119.58790 29055 ft 481 kts 358°
2026-04-28 09:53 28.63150 119.59215 29077 ft 481 kts 358°
2026-04-28 09:54 28.69829 119.59625 29088 ft 480 kts 358°
2026-04-28 09:54 28.76500 119.60032 29082 ft 480 kts 358°
2026-04-28 09:55 28.79836 119.60239 28891 ft 481 kts 358°
2026-04-28 09:55 28.83183 119.60449 28376 ft 482 kts 358°
2026-04-28 09:55 28.86538 119.60659 27883 ft 483 kts 358°
2026-04-28 09:55 28.89905 119.60868 27392 ft 485 kts 358°
2026-04-28 09:56 28.93284 119.61077 26901 ft 487 kts 358°
2026-04-28 09:56 28.96675 119.61285 26418 ft 489 kts 358°
2026-04-28 09:56 29.00082 119.61495 25947 ft 491 kts 359°
2026-04-28 09:56 29.03505 119.61709 25480 ft 493 kts 359°
2026-04-28 09:57 29.06939 119.61926 25029 ft 495 kts 359°
2026-04-28 09:57 29.10387 119.62144 24594 ft 497 kts 359°
2026-04-28 09:57 29.13850 119.62357 24147 ft 499 kts 359°
2026-04-28 09:57 29.17322 119.62566 23709 ft 501 kts 359°
2026-04-28 09:58 29.20798 119.62776 23227 ft 499 kts 359°
2026-04-28 09:58 29.24253 119.62984 22696 ft 495 kts 359°
2026-04-28 09:58 29.27677 119.63192 22188 ft 491 kts 359°
2026-04-28 09:58 29.31078 119.63403 21695 ft 487 kts 359°
2026-04-28 09:59 29.34448 119.63614 21217 ft 483 kts 359°
2026-04-28 09:59 29.37793 119.63823 20732 ft 479 kts 359°
2026-04-28 09:59 29.41107 119.64027 20261 ft 475 kts 359°
2026-04-28 09:59 29.44390 119.64229 19792 ft 470 kts 359°
2026-04-28 10:00 29.47650 119.64425 19327 ft 467 kts 359°
2026-04-28 10:00 29.50881 119.64618 18888 ft 464 kts 359°
2026-04-28 10:00 29.54095 119.64814 18430 ft 460 kts 359°
2026-04-28 10:00 29.57281 119.64987 17940 ft 457 kts 358°
2026-04-28 10:01 29.60446 119.65097 17448 ft 455 kts 357°
2026-04-28 10:01 29.63603 119.65164 16940 ft 453 kts 357°
2026-04-28 10:01 29.66743 119.65258 16443 ft 451 kts 358°
2026-04-28 10:01 29.69875 119.65399 15962 ft 449 kts 358°
2026-04-28 10:02 29.72989 119.65575 15481 ft 447 kts 359°
2026-04-28 10:02 29.76080 119.65772 15003 ft 444 kts 359°
2026-04-28 10:02 29.79152 119.65982 14549 ft 442 kts 359°
2026-04-28 10:02 29.82215 119.66221 14090 ft 440 kts
2026-04-28 10:03 29.85228 119.66860 13605 ft 442 kts 13°
2026-04-28 10:03 29.88078 119.68053 13103 ft 442 kts 23°
2026-04-28 10:03 29.90833 119.69688 12584 ft 436 kts 26°
2026-04-28 10:03 29.93491 119.71301 12100 ft 429 kts 27°
2026-04-28 10:04 29.96119 119.72891 11590 ft 423 kts 27°
2026-04-28 10:04 29.98703 119.74452 11145 ft 415 kts 27°
2026-04-28 10:04 30.01166 119.76016 10820 ft 404 kts 33°
2026-04-28 10:04 30.03297 119.78047 10527 ft 394 kts 46°
2026-04-28 10:05 30.04947 119.80515 10193 ft 383 kts 62°
2026-04-28 10:05 30.06174 119.83181 9881 ft 370 kts 64°
2026-04-28 10:05 30.07340 119.85778 9547 ft 360 kts 64°
2026-04-28 10:05 30.08481 119.88317 9209 ft 352 kts 64°
2026-04-28 10:06 30.09595 119.90799 8877 ft 345 kts 65°
2026-04-28 10:06 30.10687 119.93230 8550 ft 337 kts 65°
2026-04-28 10:06 30.11753 119.95594 8300 ft 324 kts 65°
2026-04-28 10:06 30.12760 119.97825 8044 ft 303 kts 65°
2026-04-28 10:07 30.13700 119.99913 7806 ft 284 kts 65°
2026-04-28 10:07 30.14585 120.01885 7550 ft 268 kts 66°
2026-04-28 10:07 30.15136 120.03843 7256 ft 247 kts 92°
2026-04-28 10:07 30.14754 120.05677 6975 ft 233 kts 123°
2026-04-28 10:08 30.13614 120.06955 6673 ft 231 kts 150°
2026-04-28 10:08 30.12230 120.07859 6223 ft 228 kts 140°
2026-04-28 10:08 30.11270 120.09270 5803 ft 221 kts 113°
2026-04-28 10:08 30.10987 120.10401 5667 ft 216 kts 98°
2026-04-28 10:09 30.11093 120.12108 5437 ft 213 kts 76°
2026-04-28 10:09 30.11932 120.14157 5089 ft 213 kts 65°
2026-04-28 10:09 30.12395 120.15184 4907 ft 213 kts 65°
2026-04-28 10:09 30.13072 120.16694 4625 ft 211 kts 64°
2026-04-28 10:10 30.13746 120.18202 4338 ft 211 kts 65°
2026-04-28 10:10 30.14412 120.19694 4042 ft 212 kts 64°
2026-04-28 10:10 30.15314 120.21719 3672 ft 212 kts 64°
2026-04-28 10:10 30.15986 120.23223 3405 ft 208 kts 63°
2026-04-28 10:11 30.16416 120.24187 3218 ft 200 kts 63°
2026-04-28 10:11 30.17036 120.25577 2953 ft 191 kts 63°
2026-04-28 10:11 30.17631 120.26912 2709 ft 183 kts 63°
2026-04-28 10:11 30.18194 120.28177 2488 ft 170 kts 62°
2026-04-28 10:12 30.18717 120.29353 2238 ft 158 kts 61°
2026-04-28 10:12 30.19198 120.30434 2039 ft 144 kts 61°
2026-04-28 10:12 30.19635 120.31417 1859 ft 134 kts 60°
2026-04-28 10:12 30.20057 120.32365 1673 ft 132 kts 60°
2026-04-28 10:13 30.20477 120.33307 1484 ft 131 kts 59°
2026-04-28 10:13 30.20891 120.34239 1313 ft 129 kts 59°
2026-04-28 10:13 30.21303 120.35165 1127 ft 129 kts 59°
2026-04-28 10:13 30.21711 120.36085 968 ft 128 kts 59°
2026-04-28 10:14 30.22117 120.37002 786 ft 127 kts 59°
2026-04-28 10:14 30.22530 120.37918 604 ft 128 kts 60°
2026-04-28 10:14 30.22935 120.38838 427 ft 129 kts 60°
2026-04-28 10:14 30.23346 120.39762 240 ft 129 kts 60°
2026-04-28 10:15 30.23765 120.40701 105 ft 133 kts 61°
2026-04-28 10:15 30.24168 120.41617 34 ft 115 kts 58°
2026-04-28 10:15 30.24456 120.42266 31 ft 66 kts 63°
2026-04-28 10:15 30.24617 120.42625 30 ft 43 kts 62°
2026-04-28 10:16 30.24712 120.42891 31 ft 29 kts 79°
2026-04-28 10:16 30.24723 120.43052 33 ft 14 kts 89°
2026-04-28 10:16 30.24710 120.43149 32 ft 10 kts 133°
2026-04-28 10:16 30.24654 120.43134 31 ft 8 kts 220°
2026-04-28 10:17 30.24625 120.43081 32 ft 7 kts 241°
2026-04-28 10:17 30.24602 120.43030 32 ft 7 kts 243°
2026-04-28 10:17 30.24577 120.42974 31 ft 11 kts 243°
2026-04-28 10:17 30.24543 120.42898 32 ft 10 kts 243°
2026-04-28 10:18 30.24513 120.42831 32 ft 9 kts 243°
2026-04-28 10:18 30.24487 120.42773 31 ft 8 kts 238°
2026-04-28 10:18 30.24419 120.42758 32 ft 16 kts 156°
2026-04-28 10:18 30.24314 120.42798 32 ft 13 kts 198°
2026-04-28 10:19 30.24236 120.42814 32 ft 11 kts 153°
2026-04-28 10:19 30.24176 120.42851 31 ft 7 kts 153°
2026-04-28 10:19 30.24147 120.42841 32 ft 5 kts 218°
2026-04-28 10:19 30.24130 120.42818 32 ft 3 kts 233°
2026-04-28 10:20 30.24123 120.42806 32 ft 1 kts 234°
2026-04-28 10:20 30.24121 120.42803 32 ft 0 kts 234°